STARLINK-32324, 61863

Orbit data source: Space-Track

STARLINK-32324, 61863 is a payload satellite owned by SpaceX/Seattle (US) in LEO that was launched on Thu, 07 Nov 2024 UTC via an FALCON 9 launch vehicle from the Air Force Eastern Test Range (AFETR). Payload-class satellites include a variety of spacecraft equipped with specific instruments for various scientific and technological missions. These include communications satellites like Starlink; space stations such as the ISS; scientific satellites like the Hubble; Earth observation satellites from companies like Planet Labs, Umbra, and HawkEye 360; GPS; miniature CubeSats for education and research; and military/defense satellites.

Loading next visibility...
Identifier
61863, 2024-202U
Orbit
LEO
Country
Flag of USUS
Related business
Manufacturer
SpaceX/Seattle
Mission
Operational Commercial Communications
Bus & Motor
STARLINK V2M, Unknown motor
Mass
730 kg wet, ~700 kg dry
Launch date (UTC)
2024-11-07 (2 years ago)
Launch vehicle
FALCON 9
Launch site
Air Force Eastern Test Range (AFETR)
Object type
Payload
Rocket body
Debris
Shape & HBR
Box + 2 Pan, 17.7 m
Radar Cross Section
33.884 m², Large (>1 m²)

Expand to show TLE details & history
Last TLE update: 15 hours ago

TLE from 15 hours ago
0 STARLINK-32324
1 61863U 24202U   26266.53933889  .00000120  00000-0  13897-4 0  9999
2 61863  43.0025 200.8600 0000802 288.8788  71.1977 15.27576063105588
Epoch: 2026-09-23T12:56Z
TLE epoch observation values (Epoch: 2026-09-23T12:56:38.880Z)
Latitude
0.00002°
Longitude
4.30901°
Altitude
482.659 km
Speed
7.626 km/s
True Right ascension
13h 23m 26s
True Declination
0° 00' 00"
Sunlit
Object was in daylight at epoch
Visualization orbit readout
Latitude
Unknown
Longitude
Unknown
Altitude
Unknown
Speed
Unknown
Apparent Right ascension
Unknown
Apparent Declination
Unknown
Sunlit
N/A
Visualization observer readout
Local Sidereal Time
20:46:10
Azimuth
Unknown
Elevation
Unknown
Doppler factor
Unknown
Orbital elements
Apogee altitude
485.556 km
Perigee altitude
484.455 km
Semi-major axis
6,863.143 km
Eccentricity
0.00008
Inclination
43.0025°
RAAN
200.86°
Arg. of periapsis
288.8788°
True anomaly
71.2064°
Mean anomaly
71.1977°
Eccentric anomaly
71.20205°
Mean motion
3.81732 °/min
Orbital period
94.31 mins
BSTAR
0.000013897
Loading maneuver chart data...
Computing Atmospheric mass density...
Loading historical data...
Loading historical data...
Loading historical data...
Loading historical data...
Loading historical data...
Loading historical data...
Loading historical data...

Documentation

Showing up to 5 results
|